• în România
  • Lista ţărilor
  • Pe 7 zile
  • Temperatura apei
  • Hartă satelitară
  • Meteo pe hartă
  • Widget-uri
  • user-avatar
    Intrare

    Meteo pe oră la Zagreb

    Astăzi, 14 Decembrie, Joi

    Timp Temperatura Precipitaţii Vânt Presiune Umiditate
    00:00 +2°C° 0 mm 2 m/s 748 mmHg 92%
    01:00 +2°C° 0 mm 2 m/s 747 mmHg 92%
    02:00 +2°C° 0 mm 3 m/s 747 mmHg 90%
    03:00 +3°C° 0 mm 3 m/s 746 mmHg 87%
    04:00 +4°C° 0 mm 3 m/s 745 mmHg 85%
    05:00 +4°C° 0 mm 3 m/s 745 mmHg 84%
    06:00 +5°C° 0 mm 3 m/s 744 mmHg 83%
    07:00 +6°C° 0 mm 4 m/s 744 mmHg 82%
    08:00 +6°C° 0 mm 4 m/s 744 mmHg 80%
    09:00 +7°C° 0 mm 4 m/s 744 mmHg 78%
    10:00 +8°C° 0 mm 4 m/s 744 mmHg 77%
    11:00 +10°C° 0 mm 4 m/s 744 mmHg 74%
    12:00 +10°C° 0 mm 5 m/s 744 mmHg 72%
    13:00 +12°C° 0 mm 5 m/s 743 mmHg 70%
    14:00 +11°C° 0 mm 4 m/s 743 mmHg 73%
    15:00 +10°C° 0 mm 3 m/s 743 mmHg 77%
    16:00 +10°C° 0 mm 2 m/s 743 mmHg 80%
    17:00 +9°C° 0,1 mm 2 m/s 743 mmHg 83%
    18:00 +8°C° 0,1 mm 2 m/s 743 mmHg 85%
    19:00 +9°C° 0,1 mm 1 m/s 743 mmHg 88%
    20:00 +8°C° 0,2 mm 2 m/s 743 mmHg 88%
    21:00 +8°C° 0,2 mm 2 m/s 743 mmHg 87%
    22:00 +8°C° 0,2 mm 2 m/s 743 mmHg 87%
    23:00 +8°C° 0 mm 3 m/s 742 mmHg 85%

    Mâine, 15 Decembrie, Vineri

    Timp Temperatura Precipitaţii Vânt Presiune Umiditate
    00:00 +9°C° 0 mm 3 m/s 742 mmHg 84%
    01:00 +9°C° 0 mm 3 m/s 741 mmHg 82%
    02:00 +9°C° 0 mm 3 m/s 741 mmHg 81%
    03:00 +8°C° 0 mm 4 m/s 740 mmHg 80%
    04:00 +8°C° 0 mm 4 m/s 740 mmHg 79%
    05:00 +10°C° 0 mm 4 m/s 740 mmHg 78%
    06:00 +10°C° 0 mm 4 m/s 740 mmHg 77%
    07:00 +11°C° 0 mm 4 m/s 739 mmHg 75%
    08:00 +11°C° 0 mm 4 m/s 740 mmHg 74%
    09:00 +12°C° 0 mm 4 m/s 740 mmHg 73%
    10:00 +12°C° 0 mm 4 m/s 740 mmHg 72%
    11:00 +12°C° 0,2 mm 4 m/s 741 mmHg 70%
    12:00 +12°C° 0,2 mm 4 m/s 741 mmHg 68%
    13:00 +12°C° 0,2 mm 3 m/s 741 mmHg 66%
    14:00 +11°C° 0,8 mm 3 m/s 741 mmHg 70%
    15:00 +9°C° 0,8 mm 2 m/s 740 mmHg 74%
    16:00 +8°C° 0,8 mm 2 m/s 740 mmHg 78%
    17:00 +7°C° 2,1 mm 2 m/s 740 mmHg 79%
    18:00 +5°C° 2,1 mm 3 m/s 741 mmHg 80%
    19:00 +4°C° 2,1 mm 4 m/s 741 mmHg 81%
    20:00 +4°C° 1,5 mm 4 m/s 741 mmHg 81%
    21:00 +4°C° 1,5 mm 3 m/s 741 mmHg 81%
    22:00 +3°C° 1,5 mm 3 m/s 741 mmHg 81%
    23:00 +3°C° 1,3 mm 3 m/s 741 mmHg 83%

    Poimâine, 16 Decembrie, Sâmbătă

    Timp Temperatura Precipitaţii Vânt Presiune Umiditate
    00:00 +4°C° 1,3 mm 2 m/s 742 mmHg 85%
    01:00 +5°C° 1,3 mm 1 m/s 742 mmHg 87%
    02:00 +5°C° 0,5 mm 1 m/s 742 mmHg 88%
    03:00 +4°C° 0,5 mm 1 m/s 742 mmHg 89%
    04:00 +4°C° 0,5 mm 1 m/s 742 mmHg 90%
    05:00 +4°C° 0,2 mm 1 m/s 743 mmHg 90%
    06:00 +4°C° 0,2 mm 1 m/s 743 mmHg 91%
    07:00 +4°C° 0,2 mm 1 m/s 743 mmHg 92%
    08:00 +4°C° 0 mm 1 m/s 744 mmHg 90%
    09:00 +5°C° 0 mm 1 m/s 744 mmHg 88%
    10:00 +4°C° 0 mm 0 m/s 745 mmHg 87%
    11:00 +5°C° 0 mm 0 m/s 745 mmHg 84%
    12:00 +6°C° 0 mm 1 m/s 745 mmHg 82%
    13:00 +7°C° 0 mm 1 m/s 745 mmHg 80%
    14:00 +6°C° 0 mm 1 m/s 745 mmHg 82%
    15:00 +6°C° 0 mm 1 m/s 746 mmHg 85%
    16:00 +5°C° 0 mm 1 m/s 746 mmHg 87%
    17:00 +5°C° 0 mm 1 m/s 747 mmHg 88%
    18:00 +5°C° 0 mm 1 m/s 747 mmHg 89%
    19:00 +5°C° 0 mm 1 m/s 748 mmHg 89%
    20:00 +4°C° 0 mm 1 m/s 749 mmHg 90%
    21:00 +4°C° 0 mm 1 m/s 749 mmHg 90%
    22:00 +4°C° 0 mm 1 m/s 750 mmHg 90%
    23:00 +3°C° 0 mm 1 m/s 750 mmHg 91%

    17 Decembrie, Duminică

    Timp Temperatura Precipitaţii Vânt Presiune Umiditate
    00:00 +3°C° 0 mm 1 m/s 750 mmHg 91%
    01:00 +2°C° 0 mm 1 m/s 751 mmHg 91%
    02:00 +2°C° 0 mm 1 m/s 751 mmHg 91%
    03:00 +1°C° 0 mm 1 m/s 752 mmHg 91%
    04:00 +1°C° 0 mm 1 m/s 752 mmHg 91%
    05:00 +1°C° 0 mm 1 m/s 752 mmHg 91%
    06:00 +1°C° 0 mm 1 m/s 753 mmHg 90%
    07:00 0°C° 0 mm 1 m/s 754 mmHg 90%
    08:00 +1°C° 0 mm 1 m/s 754 mmHg 86%
    09:00 +2°C° 0 mm 1 m/s 755 mmHg 82%
    10:00 +3°C° 0 mm 1 m/s 755 mmHg 79%
    11:00 +4°C° 0 mm 1 m/s 755 mmHg 76%
    12:00 +5°C° 0 mm 1 m/s 755 mmHg 73%
    13:00 +6°C° 0 mm 1 m/s 755 mmHg 70%
    14:00 +5°C° 0 mm 1 m/s 755 mmHg 73%
    15:00 +4°C° 0 mm 1 m/s 756 mmHg 77%
    16:00 +3°C° 0 mm 1 m/s 756 mmHg 80%
    17:00 +3°C° 0 mm 1 m/s 757 mmHg 81%
    18:00 +2°C° 0 mm 1 m/s 757 mmHg 82%
    19:00 +2°C° 0 mm 1 m/s 758 mmHg 83%
    20:00 +2°C° 0 mm 1 m/s 758 mmHg 82%
    21:00 +2°C° 0 mm 1 m/s 759 mmHg 82%
    22:00 +1°C° 0 mm 1 m/s 759 mmHg 82%
    23:00 +1°C° 0 mm 1 m/s 760 mmHg 81%

    18 Decembrie, Luni

    Timp Temperatura Precipitaţii Vânt Presiune Umiditate
    00:00 +1°C° 0 mm 1 m/s 760 mmHg 81%
    01:00 0°C° 0 mm 0 m/s 760 mmHg 81%
    02:00 0°C° 0 mm 0 m/s 760 mmHg 80%
    03:00 0°C° 0 mm 1 m/s 760 mmHg 80%
    04:00 0°C° 0 mm 1 m/s 760 mmHg 80%
    05:00 0°C° 0 mm 1 m/s 760 mmHg 80%
    06:00 0°C° 0 mm 1 m/s 760 mmHg 80%
    07:00 0°C° 0 mm 1 m/s 760 mmHg 79%
    08:00 +1°C° 0 mm 1 m/s 760 mmHg 76%
    09:00 +2°C° 0 mm 1 m/s 759 mmHg 73%
    10:00 +3°C° 0 mm 1 m/s 759 mmHg 70%
    11:00 +3°C° 0 mm 2 m/s 758 mmHg 67%
    12:00 +4°C° 0 mm 2 m/s 757 mmHg 64%
    13:00 +5°C° 0 mm 2 m/s 756 mmHg 61%
    14:00 +4°C° 0 mm 2 m/s 756 mmHg 66%
    15:00 +4°C° 0 mm 2 m/s 755 mmHg 70%
    16:00 +3°C° 0 mm 2 m/s 755 mmHg 75%
    17:00 +3°C° 0,1 mm 2 m/s 755 mmHg 76%
    18:00 +3°C° 0,1 mm 2 m/s 755 mmHg 78%
    19:00 +3°C° 0,1 mm 2 m/s 755 mmHg 80%
    20:00 +2°C° 0,1 mm 2 m/s 755 mmHg 80%
    21:00 +3°C° 0,1 mm 1 m/s 755 mmHg 81%
    22:00 +3°C° 0,1 mm 1 m/s 755 mmHg 82%
    23:00 +3°C° 0,1 mm 1 m/s 756 mmHg 82%

    19 Decembrie, Marţi

    Timp Temperatura Precipitaţii Vânt Presiune Umiditate
    00:00 +3°C° 0,1 mm 1 m/s 756 mmHg 83%
    01:00 +3°C° 0,1 mm 1 m/s 756 mmHg 83%
    02:00 +3°C° 0,1 mm 1 m/s 756 mmHg 83%
    03:00 +2°C° 0,1 mm 1 m/s 757 mmHg 84%
    04:00 +2°C° 0,1 mm 1 m/s 757 mmHg 84%
    05:00 +2°C° 0,1 mm 1 m/s 758 mmHg 84%
    06:00 +2°C° 0,1 mm 1 m/s 758 mmHg 85%
    07:00 +2°C° 0,1 mm 1 m/s 759 mmHg 85%
    08:00 +3°C° 0 mm 1 m/s 759 mmHg 83%
    09:00 +3°C° 0 mm 1 m/s 760 mmHg 80%
    10:00 +4°C° 0 mm 1 m/s 760 mmHg 78%
    11:00 +5°C° 0 mm 1 m/s 760 mmHg 77%
    12:00 +6°C° 0 mm 1 m/s 760 mmHg 76%
    13:00 +6°C° 0 mm 1 m/s 760 mmHg 75%
    14:00 +6°C° 0 mm 1 m/s 760 mmHg 79%
    15:00 +5°C° 0 mm 1 m/s 760 mmHg 83%
    16:00 +4°C° 0 mm 1 m/s 761 mmHg 87%
    17:00 +4°C° 0 mm 1 m/s 761 mmHg 88%
    18:00 +3°C° 0 mm 1 m/s 762 mmHg 90%
    19:00 +3°C° 0 mm 1 m/s 762 mmHg 91%
    20:00 +2°C° 0,1 mm 2 m/s 763 mmHg 91%
    21:00 +1°C° 0,1 mm 2 m/s 763 mmHg 92%
    22:00 +1°C° 0,1 mm 2 m/s 763 mmHg 92%
    23:00 +1°C° 0 mm 2 m/s 764 mmHg 92%
    Arată mai mult